Tracking 31027 objects as of 19-Jul-2025
HD Live streaming from Space Station
objects crossing your sky now

ONEWEB-0224

Track ONEWEB-0224 now!
10-day predictions
ONEWEB-0224 is classified as:


NORAD ID: 48794
Int'l Code: 2021-045AD
Perigee: 1,207.3 km
Apogee: 1,210.5 km
Inclination: 87.9 °
Period: 109.5 minutes
Semi major axis: 7579 km
RCS: Unknown
Launch date: May 28, 2021
Source: United Kingdom (UK)
Launch site: VOSTOCHNY COSMODROME (VOSTO)
Your satellite tracking list
EKRAN 2 DEB
Track 1 satellite(s)




NASA's NSSDC Master Catalog

Two Line Element Set (TLE):
1 48794U 21045AD  25199.57887771  .00000194  00000-0  48105-3 0  9995
2 48794  87.9080 325.7579 0002083  70.1769 289.9586 13.15548191201533
Source of the keplerian elements: AFSPC